Regional Weather Roundup
Issued by NWS State College, PA

Home | Current Version | Previous Version | Text Only | Print | Product List | Glossary On
Versions: 1 2 3 4 5 6 7 8 9 10 11 12 13 14 15 16 17 18 19 20 21 22 23 24 25 26 27 28 29 30 31 32 33 34 35 36 37 38 39 40 41 42 43 44 45 46 47 48 49 50
000
ASUS41 KCTP 230610
RWRCTP

REGIONAL WEATHER ROUNDUP
NATIONAL WEATHER SERVICE STATE COLLEGE PA
200 AM EDT SAT MAY 23 2015

Note: "fair" indicates few or no clouds below 12,000 feet with no
significant weather and/or obstructions to visibility.

* = STATION THAT DOES NOT REPORT PRECIPITATION /E.G. RAIN...SNOW...ETC/
    THUNDER OR FOG.

PAZ002>004-007>009-013>016-020>023-029>032-230700-
WESTERN PENNSYLVANIA

CITY           SKY/WX    TMP DP  RH WIND       PRES   REMARKS
ERIE           CLEAR     40  32  73 CALM      30.35R
MEADVILLE      CLEAR     39  28  64 CALM      30.33S
FRANKLIN*      CLEAR     36  23  60 CALM      30.34S
NEW CASTLE     FAIR      36  35  96 CALM      30.34S
BEAVER COUNTY  NOT AVBL
BUTLER*        CLEAR     36  28  75 NE6       30.34F
PITTSBURGH INT PTCLDY    42  32  67 CALM      30.32S
PITTSBURGH     CLEAR     47  15  27 S3        30.32S
INDIANA*       CLEAR     37  30  75 E3        30.36S
LATROBE        CLEAR     37  32  81 CALM      30.35R
WASHINGTON CO* CLEAR     37  34  87 CALM      30.35S
$$

PAZ004>006-010>012-017>019-024>028-033>037-041-042-045-046-049>053-230700-
CENTRAL PENNSYLVANIA

CITY           SKY/WX    TMP DP  RH WIND       PRES   REMARKS
BRADFORD       CLEAR     37  19  48 W5        30.30R
DUBOIS         CLEAR     38  22  52 CALM      30.31R
CLEARFIELD     CLEAR     41  21  44 W7        30.33R
JOHNSTOWN      CLEAR     41  17  38 NE5       30.30F
ALTOONA        CLEAR     44  22  41 CALM      30.32S
STATE COLLEGE  CLEAR     40  26  56 SW3       30.32R
WILLIAMSPORT   CLEAR     47  23  38 W5        30.27R
SELINSGROVE    CLEAR     47  26  44 W5        30.29R
FT INDIANTOWN  PTCLDY    54  24  31 SW8       30.29R
CAPITAL CITY   PTCLDY    52  31  44 SW7       30.30R
HARRISBURG     PTCLDY    55  27  34 NW14      30.29R
YORK           CLEAR     50  32  50 NW9       30.29R
$$

PAZ038>040-043-044-047-048-054-055-060>062-067>071-230700-
EASTERN PENNSYLVANIA

CITY           SKY/WX    TMP DP  RH WIND       PRES   REMARKS
SCRANTON       CLEAR     46  25  43 NW6       30.25S
MOUNT POCONO   CLEAR     42  24  49 NW12      30.20S
ALLENTOWN      CLEAR     52  31  44 N13       30.26R
QUAKERTOWN*    CLEAR     54  34  47 N8        30.26R
READING        CLEAR     54  30  40 NW12      30.25R
LANCASTER      CLEAR     53  31  42 NW13      30.27R
COATESVILLE    CLEAR     50  30  46 NW8       30.26R
POTTSTOWN      CLEAR     55  31  39 NW7       30.26R
BLUE BELL      CLEAR     55  32  41 NW3       30.23R
DOYLESTOWN     CLEAR     52  32  46 N7        30.23R
WILLOW GROVE   NOT AVBL
NORTH PHILA    CLEAR     59  30  33 NW12      30.25R
PHILADELPHIA   CLEAR     60  28  29 NW12      30.24R
$$



USA.gov is the U.S. government's official web portal to all federal, state and local government web resources and services.